Location: LewisvilleTX
(33.0462°N, 96.9942°W)
Time: 05:56:29
(UTC+00:00)

N. Korean satellite - Pass Details

Date: 05 December 2021
Orbit: 447 x 491 km, 97.3° (Epoch: 22 January)

Event Time Altitude Azimuth Distance (km) Brightness Sun altitude
Rises 10:40:27 0° 37° (NE) 2,449 10.5 -32.0°
Reaches altitude 10° 10:43:37 10° 71° (ENE) 1,572 9.8 -31.3°
Maximum altitude 10:44:56 12° 94° (E) 1,459 9.8 -31.1°
Drops below altitude 10° 10:46:16 10° 117° (ESE) 1,569 9.9 -30.8°
Sets 10:49:24 0° 151° (SSE) 2,439 10.6 -30.1°
